[[{"header":{"parameterUnit":"m.s-1","parameterCategory":2,"la1":30.2991,"la2":30.254,"lo1":-89.0895,"lo2":-89.0444,"dy":0.0017,"dx":0.0017,"nx":28,"ny":28,"refTime":"2024-02-03T09:00:00:Z","depth":"0","parameterNumber":2,"parameterNumberName":"U-component_of_CURRENTS"},"data":[0,0,0,0,0,0,0,0,0,0,0,0,0,0,0,0,0,0,0,0,0,0,0,0,0,0,0,0,0,0,0,0,0,0,0,0,0,0,0,0,0,0,0,0,0,0,0,0,0,0,0,0,0,0,0,0,0,0,0.3451,0.3451,0,0.3416,0.3416,0.3416,0.3325,0.3323,0.3321,0.3319,0.322,0.3219,0.3218,0,0,0,0,0,0,0,0,0,0,0,0,0,0.3456,0.3456,0.3451,0.3451,0.345,0.3417,0.3416,0.3416,0.3325,0.3323,0.3321,0.3318,0.322,0.3219,0.3218,0,0,0,0,0,0,0,0,0,0,0,0,0,0.3441,0.3456,0.3451,0.3401,0.3396,0.3417,0.3416,0.3415,0.3326,0.3323,0.332,0.3317,0.3221,0.3219,0.3218,0.3269,0,0,0.3214,0.3214,0,0,0,0,0,0,0,0,0.3442,0.3441,0.3409,0.3405,0.3399,0.3372,0.3381,0.3363,0.3327,0.3353,0.3319,0.3316,0.3267,0.3262,0.3263,0.3264,0.326,0.3214,0.3214,0.3213,0.3213,0,0,0,0,0,0,0,0.3443,0.3442,0.3438,0.3409,0.3403,0.3386,0.338,0.3378,0.3326,0.335,0.3344,0.334,0.3263,0.3264,0.326,0.3259,0.3214,0.3213,0.3212,0.3212,0.3365,0.3369,0,0,0,0,0,0,0.345,0.3443,0.3439,0.3436,0.3414,0.3388,0.3382,0.3384,0.3327,0.3316,0.3343,0.3336,0.3268,0.3261,0.3256,0.3311,0.3213,0.3212,0.3211,0.336,0.3366,0.3371,0,0,0,0,0,0,0.345,0.345,0.344,0.3438,0.3436,0.3391,0.3394,0.3385,0.3385,0.3322,0.3309,0.3352,0.3265,0.3257,0.3267,0.3306,0.3211,0.321,0.3354,0.3362,0.3369,0.3423,0,0,0,0,0,0,0.3451,0.3451,0.3457,0.3439,0.3436,0.346,0.3396,0.3386,0.3388,0.3379,0.3327,0.3314,0.3262,0.327,0.3266,0.3303,0.3209,0.3348,0.3358,0.3366,0.3415,0.3431,0.3444,0,0,0,0,0,0.3451,0.3464,0.3458,0.3457,0.3446,0.3462,0.346,0.3417,0.3391,0.3405,0.3375,0.3315,0.3326,0.3272,0.3267,0.3303,0.3344,0.3355,0.3366,0.3408,0.3428,0.3444,0,0,0,0,0,0,0.3465,0.3456,0.3448,0.3457,0.3466,0.3446,0.3449,0.3438,0.3429,0.3413,0.3356,0.3344,0.3377,0.3357,0.33,0.3389,0.3335,0.3345,0.337,0.3388,0.3402,0.34,0.3208,0,0,0,0,0,0.3478,0.3483,0.3483,0.3493,0.3499,0.3486,0.3488,0.3469,0.3457,0.3448,0.3414,0.3406,0.3426,0.3414,0.3422,0.3455,0.3457,0.3492,0.3507,0.3519,0.3524,0.3589,0.3608,0.3407,0.3407,0.3406,0,0,0.3483,0.3482,0.3482,0.3497,0.3495,0.3514,0.3479,0.3489,0.3503,0.3442,0.3447,0.3453,0.3454,0.3489,0.3504,0.3464,0.3582,0.3532,0.3541,0.354,0.3602,0.3621,0.3637,0.3414,0.3413,0.3411,0,0,0.3498,0.3503,0.3512,0.3528,0.3538,0.354,0.3553,0.3549,0.3543,0.3569,0.3544,0.3584,0.358,0.3596,0.3605,0.3724,0.3668,0.3732,0.3777,0.3841,0.3856,0.387,0.3893,0.3908,0.3725,0.3725,0.3725,0,0.3501,0.3514,0.3522,0.3541,0.3545,0.3558,0.3573,0.3594,0.3593,0.3591,0.3576,0.3629,0.364,0.3694,0.3746,0.3751,0.3758,0.3689,0.3853,0.3867,0.388,0.39,0.3916,0.3729,0.3728,0.3728,0.3728,0,0.3521,0.3537,0.3548,0.3573,0.3592,0.3609,0.3635,0.3654,0.3656,0.3661,0.3711,0.3743,0.3763,0.3804,0.3807,0.3913,0.3878,0.3867,0.3787,0.3902,0.3918,0.3933,0.3734,0.3733,0.3732,0.3731,0,0,0.35,0.3548,0.355,0.3561,0.3602,0.3616,0.3658,0.3686,0.3695,0.3734,0.3751,0.3851,0.3857,0.3878,0.39,0.3973,0.4094,0.3961,0.3963,0.3946,0.42,0.4138,0.4148,0.4092,0.4095,0.4098,0.4171,0,0.3504,0.3538,0.3561,0.3595,0.3612,0.3637,0.3668,0.3699,0.3722,0.3749,0.3813,0.3848,0.3887,0.3901,0.3991,0.4072,0.4138,0.4073,0.4125,0.4126,0.4026,0.4166,0.4073,0.4127,0.4185,0.4188,0.4189,0,0.3506,0.3527,0.355,0.3588,0.3594,0.3617,0.3643,0.3677,0.3731,0.3745,0.3796,0.3828,0.3955,0.3969,0.415,0.4097,0.4166,0.4224,0.4227,0.4158,0.4094,0.4029,0.4151,0.4019,0.4212,0.421,0.4209,0,0.3469,0.3516,0.3526,0.354,0.359,0.3592,0.3618,0.366,0.3673,0.3739,0.3741,0.3867,0.3915,0.4053,0.4177,0.4172,0.4348,0.4347,0.4344,0.4338,0.4266,0.4248,0.4234,0.4475,0.4475,0.4475,0.4475,0,0.3455,0.3465,0.3506,0.3512,0.3514,0.356,0.3562,0.3599,0.3642,0.3652,0.3734,0.3764,0.3943,0.4043,0.4176,0.4302,0.4346,0.4382,0.4373,0.4284,0.4268,0.4152,0.4118,0.4478,0.4477,0.4476,0.4476,0,0.3407,0.3441,0.3451,0.3489,0.3495,0.3494,0.3516,0.3514,0.3565,0.3583,0.36,0.3706,0.3843,0.3985,0.4193,0.4269,0.4308,0.4428,0.4289,0.4265,0.4152,0.4127,0.3992,0.3908,0.4471,0.447,0.447,0,0.3382,0.3382,0.3411,0.3403,0.3412,0.3417,0.3407,0.3464,0.3464,0.3542,0.3544,0.3658,0.3726,0.3974,0.4153,0.4339,0.4236,0.4322,0.4327,0.4155,0.4122,0.3951,0.3878,0.4254,0.4251,0.4249,0.4248,0,0.332,0.3328,0.3333,0.3318,0.3305,0.329,0.3293,0.3282,0.3343,0.3357,0.34,0.3466,0.3699,0.3846,0.4059,0.4185,0.4131,0.4287,0.4166,0.4012,0.3772,0.368,0.4161,0.423,0.4232,0.4233,0.4234,0.4235,0.3255,0.3236,0.3234,0.3208,0.3192,0.3142,0.3084,0.31,0.3081,0.3084,0.3237,0.3301,0.3582,0.389,0.3962,0.402,0.4012,0.3986,0.3988,0.384,0.3702,0.4123,0.4142,0.4143,0.4144,0.4145,0.4146,0,0.3149,0.3136,0.3118,0.3063,0.2992,0.3029,0.2977,0.2899,0.2827,0.2931,0.297,0.3208,0.3377,0.36,0.3813,0.3749,0.3623,0.3649,0.3406,0.3371,0.3809,0.3742,0.3604,0.3604,0.3604,0.3604,0.3604,0.3604,0.3087,0.3028,0.3017,0.287,0.2827,0.2689,0.2633,0.2556,0.2584,0.2596,0.2699,0.2853,0.3159,0.3455,0.3506,0.3469,0.3237,0.3099,0.307,0.3402,0.3432,0.3461,0.3386,0.3175,0.3175,0.2506,0.2502,0.2498]},{"header":{"parameterUnit":"m.s-1","parameterCategory":2,"la1":30.2991,"la2":30.254,"lo1":-89.0895,"lo2":-89.0444,"dy":0.0017,"dx":0.0017,"nx":28,"ny":28,"refTime":"2024-02-03T09:00:00:Z","depth":"0","parameterNumber":3,"parameterNumberName":"V-component_of_CURRENTS"},"data":[0,0,0,0,0,0,0,0,0,0,0,0,0,0,0,0,0,0,0,0,0,0,0,0,0,0,0,0,0,0,0,0,0,0,0,0,0,0,0,0,0,0,0,0,0,0,0,0,0,0,0,0,0,0,0,0,0,0,0.0428,0.0427,0,0.0308,0.0306,0.0304,0.0186,0.0185,0.0184,0.0183,0.0053,0.005,0.0048,0,0,0,0,0,0,0,0,0,0,0,0,0,0.0509,0.0508,0.0428,0.0427,0.0426,0.0308,0.0306,0.0304,0.0187,0.0185,0.0184,0.0183,0.0054,0.0051,0.0048,0,0,0,0,0,0,0,0,0,0,0,0,0,0.0436,0.0508,0.0428,0.0357,0.035,0.0308,0.0306,0.0303,0.0187,0.0185,0.0184,0.0182,0.0055,0.0051,0.0047,0.0058,0,0,0.0036,0.0035,0,0,0,0,0,0,0,0,0.044,0.0432,0.0369,0.0362,0.0354,0.0264,0.0287,0.0222,0.0187,0.0244,0.0183,0.0181,0.0127,0.0117,0.0092,0.0052,0.0046,0.0036,0.0034,0.0032,0.0031,0,0,0,0,0,0,0,0.0445,0.0436,0.0376,0.0368,0.0359,0.0315,0.0302,0.0273,0.0192,0.0239,0.0231,0.0226,0.0122,0.0096,0.0088,0.0044,0.0036,0.0033,0.003,0.0029,0.0095,0.0099,0,0,0,0,0,0,0.0474,0.0442,0.038,0.0373,0.0399,0.0315,0.0301,0.0291,0.0193,0.0177,0.0227,0.0221,0.0103,0.0092,0.0083,0.0138,0.0032,0.0029,0.0027,0.0091,0.0096,0.01,0,0,0,0,0,0,0.0476,0.0469,0.0385,0.0408,0.0395,0.0316,0.0305,0.029,0.0267,0.0185,0.0168,0.0222,0.0101,0.0088,0.0074,0.0131,0.0027,0.0024,0.0087,0.0093,0.0098,0.0218,0,0,0,0,0,0,0.0479,0.0471,0.0469,0.041,0.0395,0.0369,0.0307,0.0289,0.0268,0.0258,0.0175,0.0161,0.0099,0.008,0.0071,0.0124,0.0021,0.0082,0.0089,0.0096,0.0209,0.0228,0.0243,0,0,0,0,0,0.0482,0.0473,0.0469,0.0462,0.0396,0.037,0.0358,0.0293,0.027,0.0265,0.0221,0.0163,0.0122,0.0079,0.0067,0.0121,0.0078,0.0087,0.0096,0.0202,0.0224,0.0243,0,0,0,0,0,0,0.0482,0.046,0.0453,0.0432,0.0416,0.0352,0.0334,0.0312,0.0272,0.0261,0.0189,0.0172,0.0191,0.0151,0.0106,0.0172,0.0102,0.0109,0.0187,0.0207,0.0224,0.0256,0.0018,0,0,0,0,0,0.0496,0.0493,0.0468,0.0453,0.045,0.0406,0.0387,0.0357,0.0317,0.0296,0.025,0.0223,0.0221,0.0206,0.0188,0.0206,0.0191,0.0246,0.0263,0.0277,0.0303,0.0376,0.0402,0.013,0.013,0.013,0,0,0.049,0.0479,0.0475,0.0457,0.0433,0.0438,0.0388,0.037,0.0381,0.0292,0.0289,0.0273,0.0243,0.0266,0.0273,0.0233,0.0337,0.0289,0.03,0.0318,0.0388,0.0414,0.0438,0.0136,0.0135,0.0134,0,0,0.0491,0.0477,0.0486,0.0483,0.0473,0.0456,0.0466,0.0432,0.0422,0.0427,0.0391,0.0423,0.0378,0.0393,0.039,0.0501,0.0429,0.0494,0.0592,0.0663,0.0686,0.0706,0.0665,0.0681,0.0497,0.0497,0.0497,0,0.0491,0.0499,0.0483,0.0497,0.0501,0.0478,0.0499,0.0491,0.0461,0.0486,0.0442,0.0483,0.0453,0.0529,0.0566,0.054,0.0525,0.0504,0.0684,0.0704,0.0722,0.0676,0.0692,0.0504,0.0503,0.0502,0.0502,0,0.0511,0.0519,0.0522,0.0545,0.0549,0.0558,0.0564,0.0582,0.058,0.0587,0.066,0.0643,0.0673,0.0686,0.0646,0.078,0.0703,0.0697,0.0624,0.0756,0.0699,0.0713,0.0514,0.0511,0.0509,0.0508,0,0,0.0521,0.0536,0.0542,0.0566,0.058,0.0588,0.0632,0.0681,0.0736,0.0742,0.0828,0.0862,0.0874,0.0879,0.0865,0.093,0.1024,0.087,0.087,0.0814,0.1102,0.1027,0.1033,0.1045,0.105,0.1054,0.0987,0,0.0551,0.0586,0.0591,0.0638,0.0662,0.0675,0.0722,0.0766,0.0804,0.088,0.0928,0.0991,0.094,0.0972,0.1037,0.1055,0.1076,0.1037,0.0997,0.0994,0.0902,0.1055,0.1045,0.0987,0.1,0.1003,0.1004,0,0.0588,0.0608,0.0652,0.0706,0.0721,0.0749,0.0844,0.0884,0.0988,0.1023,0.111,0.1132,0.1244,0.1179,0.126,0.1233,0.1176,0.1164,0.1161,0.107,0.0951,0.0872,0.101,0.0783,0.1024,0.1023,0.1021,0,0.0619,0.0662,0.0701,0.0714,0.0765,0.0805,0.0844,0.0934,0.1006,0.1128,0.1205,0.1303,0.1374,0.1381,0.1349,0.1313,0.141,0.135,0.1204,0.1191,0.1168,0.1148,0.1082,0.1389,0.139,0.139,0.139,0,0.0658,0.0693,0.0717,0.0738,0.0813,0.0837,0.0943,0.0996,0.1115,0.1245,0.1284,0.1414,0.1441,0.1488,0.1415,0.1368,0.1453,0.1256,0.1215,0.1201,0.1187,0.0973,0.0845,0.1387,0.1388,0.1388,0.1389,0,0.0685,0.0697,0.0746,0.0799,0.0824,0.0876,0.0988,0.1078,0.1171,0.1346,0.1397,0.1531,0.1606,0.1566,0.1582,0.1454,0.1287,0.1338,0.1264,0.1218,0.0861,0.0741,0.0706,0.0581,0.1178,0.1176,0.1175,0,0.07,0.0723,0.0782,0.082,0.0843,0.0925,0.0999,0.1098,0.1212,0.1433,0.154,0.1653,0.1783,0.1736,0.1571,0.1414,0.1233,0.1215,0.1172,0.0875,0.0712,0.0682,0.0576,0.1145,0.1144,0.1143,0.1142,0,0.073,0.0744,0.0782,0.0858,0.0928,0.1031,0.1148,0.1249,0.1407,0.1564,0.1796,0.1919,0.1882,0.1809,0.1558,0.1408,0.106,0.118,0.0953,0.0765,0.0659,0.0505,0.1055,0.1131,0.1132,0.1133,0.1134,0.1134,0.0749,0.0781,0.0831,0.0912,0.1002,0.115,0.1264,0.1418,0.1622,0.1899,0.1981,0.2207,0.2023,0.1736,0.1452,0.0915,0.0954,0.0747,0.064,0.0646,0.0516,0.0986,0.0976,0.0976,0.0976,0.0977,0.0977,0,0.0773,0.0816,0.0888,0.1,0.1122,0.117,0.1381,0.1525,0.1782,0.2044,0.2254,0.2358,0.1978,0.158,0.0897,0.0474,0.0345,0.0236,0.0192,0.0116,0.0606,0.0591,0.0406,0.0406,0.0406,0.0406,0.0407,0.0407,0.0788,0.0853,0.0898,0.1091,0.1189,0.1391,0.1529,0.1744,0.1967,0.2324,0.2541,0.2704,0.248,0.1192,0.0241,-0.0018,-0.0331,-0.0334,-0.0515,-0.0214,-0.0174,-0.0136,-0.0179,-0.0522,-0.0523,-0.0932,-0.0937,-0.094]}],[{"header":{"parameterUnit":"m.s-1","parameterCategory":2,"la1":30.2991,"la2":30.254,"lo1":-89.0895,"lo2":-89.0444,"dy":0.0017,"dx":0.0017,"nx":28,"ny":28,"refTime":"2024-02-03T09:00:00:Z","depth":"2","parameterNumber":2,"parameterNumberName":"U-component_of_CURRENTS"},"data":[0,0,0,0,0,0,0,0,0,0,0,0,0,0,0,0,0,0,0,0,0,0,0,0,0,0,0,0,0,0,0,0,0,0,0,0,0,0,0,0,0,0,0,0,0,0,0,0,0,0,0,0,0,0,0,0,0,0,0.1558,0.1559,0,0.162,0.162,0.162,0.1692,0.1694,0.1696,0.1698,0.1826,0.1828,0.183,0,0,0,0,0,0,0,0,0,0,0,0,0,0.1536,0.1535,0.1558,0.1559,0.1561,0.162,0.162,0.162,0.1692,0.1694,0.1696,0.1698,0.1826,0.1828,0.183,0,0,0,0,0,0,0,0,0,0,0,0,0,0.1559,0.1535,0.1557,0.1609,0.1615,0.162,0.162,0.162,0.1692,0.1694,0.1697,0.1699,0.1825,0.1828,0.183,0.1794,0,0,0.1839,0.184,0,0,0,0,0,0,0,0,0.1558,0.1559,0.16,0.1606,0.1612,0.1657,0.166,0.1684,0.1691,0.1655,0.1698,0.1701,0.1779,0.1785,0.178,0.18,0.1805,0.1839,0.184,0.1842,0.1842,0,0,0,0,0,0,0,0.1556,0.1557,0.1575,0.1601,0.1609,0.1641,0.1646,0.1664,0.1697,0.1658,0.1665,0.1683,0.1782,0.1777,0.1784,0.1807,0.1839,0.1841,0.1843,0.1844,0.1961,0.1963,0,0,0,0,0,0,0.1558,0.1555,0.1573,0.1578,0.1599,0.164,0.1645,0.1634,0.1695,0.1709,0.1681,0.1686,0.1771,0.1781,0.1789,0.1888,0.1842,0.1844,0.1846,0.196,0.1962,0.1963,0,0,0,0,0,0,0.1556,0.1557,0.1571,0.1576,0.1581,0.1638,0.1625,0.1634,0.1665,0.1713,0.1727,0.1707,0.1774,0.1785,0.1855,0.1889,0.1845,0.1848,0.1958,0.196,0.1962,0.1998,0,0,0,0,0,0,0.1555,0.1555,0.1559,0.1574,0.1581,0.1618,0.1623,0.1634,0.1673,0.1681,0.1739,0.1752,0.1777,0.1851,0.1858,0.1892,0.185,0.1956,0.1959,0.1962,0.1995,0.2001,0.2006,0,0,0,0,0,0.1553,0.1547,0.1558,0.1562,0.1579,0.1621,0.1627,0.1672,0.1672,0.1703,0.1743,0.1752,0.1874,0.1854,0.1862,0.1897,0.1955,0.1958,0.1962,0.1992,0.2,0.2006,0,0,0,0,0,0,0.1526,0.1555,0.1568,0.1567,0.1614,0.1637,0.166,0.1679,0.1725,0.1738,0.1768,0.1784,0.186,0.1869,0.1846,0.194,0.1916,0.1921,0.1937,0.1944,0.195,0.196,0.1852,0,0,0,0,0,0.1522,0.1533,0.1571,0.1574,0.1594,0.1625,0.1647,0.1683,0.1721,0.1743,0.1774,0.1816,0.1868,0.1902,0.1942,0.1983,0.2007,0.2013,0.2019,0.2023,0.2037,0.2107,0.212,0.1974,0.1974,0.1974,0,0,0.1513,0.153,0.1537,0.1573,0.1597,0.1634,0.1644,0.1691,0.1728,0.1749,0.1797,0.1838,0.1886,0.195,0.1982,0.1968,0.2075,0.2028,0.2031,0.2043,0.2112,0.2126,0.2139,0.1977,0.1976,0.1976,0,0,0.1512,0.1513,0.1536,0.1572,0.1633,0.1655,0.1676,0.1716,0.1748,0.1799,0.1833,0.1897,0.1946,0.2,0.2031,0.2087,0.2106,0.2099,0.2137,0.2204,0.2217,0.2228,0.2267,0.2281,0.21,0.2101,0.2101,0,0.1514,0.1529,0.1554,0.1588,0.1623,0.1665,0.1708,0.1736,0.1797,0.1837,0.183,0.1941,0.1971,0.2075,0.2098,0.2102,0.2136,0.2105,0.2212,0.2224,0.2235,0.2272,0.2288,0.2103,0.2102,0.2102,0.2102,0,0.154,0.1558,0.157,0.1625,0.1664,0.1709,0.1759,0.1801,0.1828,0.1871,0.1973,0.2014,0.2095,0.2105,0.2118,0.2222,0.2219,0.2212,0.2193,0.2252,0.2287,0.2303,0.2106,0.2105,0.2104,0.2104,0,0,0.1538,0.1586,0.1598,0.1625,0.1693,0.1729,0.1785,0.1871,0.1937,0.1981,0.2066,0.2138,0.2179,0.2216,0.2247,0.2291,0.2383,0.2287,0.229,0.2322,0.2527,0.2394,0.2398,0.2404,0.2407,0.2409,0.2515,0,0.1567,0.1623,0.165,0.171,0.1736,0.1791,0.185,0.1932,0.1998,0.2085,0.2144,0.2237,0.2218,0.2273,0.2321,0.2384,0.2429,0.2354,0.2468,0.2471,0.2343,0.2414,0.2237,0.2306,0.2531,0.2533,0.2535,0,0.1591,0.1626,0.1686,0.1753,0.1778,0.183,0.1948,0.2017,0.2145,0.22,0.2298,0.2347,0.2448,0.2402,0.2536,0.2496,0.252,0.2538,0.2543,0.2419,0.2367,0.2286,0.2326,0.2561,0.2559,0.2557,0.2555,0,0.1573,0.1648,0.1696,0.1719,0.1808,0.1862,0.1935,0.2063,0.2137,0.229,0.2348,0.2481,0.2545,0.2609,0.2635,0.2612,0.275,0.2723,0.2622,0.2612,0.2483,0.2455,0.2808,0.2808,0.2807,0.2807,0.2807,0,0.1576,0.1614,0.1696,0.172,0.1814,0.1878,0.2002,0.2095,0.2227,0.2338,0.242,0.2503,0.2601,0.2673,0.2692,0.2704,0.2805,0.2646,0.2641,0.2486,0.2458,0.2693,0.2679,0.2811,0.281,0.2809,0.2809,0,0.1536,0.1589,0.1645,0.1753,0.1797,0.1873,0.2019,0.2099,0.2233,0.2371,0.2415,0.255,0.2651,0.2705,0.2815,0.276,0.279,0.2761,0.255,0.2516,0.2595,0.2581,0.2682,0.2678,0.2675,0.2673,0.2671,0,0.1535,0.1548,0.1659,0.1702,0.1756,0.1869,0.1942,0.2095,0.2179,0.2391,0.2442,0.2573,0.2616,0.2694,0.2687,0.2694,0.2751,0.2491,0.2395,0.2603,0.2588,0.2579,0.257,0.2249,0.2244,0.2239,0.2236,0,0.1518,0.1547,0.1582,0.166,0.174,0.183,0.1952,0.2003,0.2193,0.2263,0.2383,0.2424,0.2535,0.2456,0.2449,0.2424,0.2473,0.2395,0.2723,0.2278,0.2195,0.218,0.2186,0.2196,0.22,0.2203,0.2205,0.2207,0.1504,0.1526,0.1557,0.162,0.1709,0.1778,0.1819,0.1896,0.1969,0.2071,0.2206,0.2199,0.2274,0.2148,0.2109,0.2094,0.2242,0.2134,0.2149,0.2168,0.2069,0.1982,0.1925,0.1927,0.1929,0.1931,0.1933,0,0.1487,0.15,0.1527,0.1604,0.1635,0.1725,0.1815,0.178,0.1794,0.1891,0.1927,0.1758,0.1705,0.1803,0.1725,0.1701,0.1701,0.1629,0.1635,0.1675,0.1711,0.1589,0.1318,0.1315,0.1313,0.1312,0,0,0.148,0.1468,0.1461,0.1494,0.1568,0.1606,0.1638,0.155,0.1564,0.148,0.1487,0.1601,0.1715,0.1478,0.1467,0.1391,0.1516,0.1332,0.183,0.1878,0.191,0.2011,0.1868,0,0,0,0,0]},{"header":{"parameterUnit":"m.s-1","parameterCategory":2,"la1":30.2991,"la2":30.254,"lo1":-89.0895,"lo2":-89.0444,"dy":0.0017,"dx":0.0017,"nx":28,"ny":28,"refTime":"2024-02-03T09:00:00:Z","depth":"2","parameterNumber":3,"parameterNumberName":"V-component_of_CURRENTS"},"data":[0,0,0,0,0,0,0,0,0,0,0,0,0,0,0,0,0,0,0,0,0,0,0,0,0,0,0,0,0,0,0,0,0,0,0,0,0,0,0,0,0,0,0,0,0,0,0,0,0,0,0,0,0,0,0,0,0,0,-0.0106,-0.0106,0,-0.0135,-0.0135,-0.0135,-0.016,-0.016,-0.0161,-0.0162,-0.0371,-0.0376,-0.0381,0,0,0,0,0,0,0,0,0,0,0,0,0,-0.0108,-0.0107,-0.0106,-0.0106,-0.0107,-0.0135,-0.0135,-0.0135,-0.016,-0.016,-0.0161,-0.0162,-0.0369,-0.0375,-0.0381,0,0,0,0,0,0,0,0,0,0,0,0,0,-0.0116,-0.0107,-0.0105,-0.0125,-0.0127,-0.0135,-0.0135,-0.0135,-0.016,-0.016,-0.0161,-0.0162,-0.0367,-0.0374,-0.0382,-0.0411,0,0,-0.0405,-0.0408,0,0,0,0,0,0,0,0,-0.0115,-0.0115,-0.0122,-0.0124,-0.0126,-0.0148,-0.0213,-0.0237,-0.0159,-0.0144,-0.0162,-0.0163,-0.0315,-0.0326,-0.0322,-0.042,-0.0429,-0.0406,-0.041,-0.0413,-0.0415,0,0,0,0,0,0,0,-0.0114,-0.0114,-0.0114,-0.0122,-0.0125,-0.0145,-0.0147,-0.0216,-0.0225,-0.0145,-0.0148,-0.0156,-0.0317,-0.0315,-0.0328,-0.0433,-0.0405,-0.0412,-0.0417,-0.042,-0.0617,-0.0618,0,0,0,0,0,0,-0.0114,-0.0113,-0.0113,-0.0115,-0.0127,-0.0145,-0.0146,-0.0137,-0.022,-0.0233,-0.0156,-0.0157,-0.0301,-0.0319,-0.0336,-0.0415,-0.0413,-0.042,-0.0425,-0.0616,-0.0617,-0.0618,0,0,0,0,0,0,-0.0114,-0.0113,-0.0112,-0.0119,-0.012,-0.0144,-0.0134,-0.0137,-0.0152,-0.0226,-0.0242,-0.0168,-0.0303,-0.0325,-0.0401,-0.0422,-0.0424,-0.0431,-0.0615,-0.0617,-0.0618,-0.0548,0,0,0,0,0,0,-0.0114,-0.0112,-0.011,-0.0118,-0.012,-0.0125,-0.0133,-0.0137,-0.0156,-0.0159,-0.0243,-0.0262,-0.0305,-0.0389,-0.0409,-0.0432,-0.0436,-0.0615,-0.0616,-0.0617,-0.055,-0.0547,-0.0545,0,0,0,0,0,-0.0113,-0.0096,-0.0109,-0.011,-0.0113,-0.0126,-0.0129,-0.0147,-0.0156,-0.0162,-0.0213,-0.026,-0.0412,-0.0396,-0.0418,-0.0445,-0.0614,-0.0616,-0.0617,-0.0551,-0.0547,-0.0545,0,0,0,0,0,0,-0.0087,-0.0098,-0.0112,-0.0097,-0.012,-0.0132,-0.0132,-0.0152,-0.0191,-0.02,-0.0268,-0.029,-0.0366,-0.0415,-0.0395,-0.0506,-0.0522,-0.0528,-0.0464,-0.0462,-0.0459,-0.0436,-0.0443,0,0,0,0,0,-0.0083,-0.0077,-0.0098,-0.009,-0.0096,-0.0119,-0.0128,-0.0145,-0.0179,-0.0196,-0.0248,-0.0315,-0.0386,-0.043,-0.0494,-0.0556,-0.0569,-0.0589,-0.0586,-0.0584,-0.0581,-0.0602,-0.06,-0.0623,-0.0623,-0.0623,0,0,-0.0072,-0.0077,-0.0075,-0.0086,-0.0096,-0.0097,-0.0125,-0.0138,-0.015,-0.0218,-0.0247,-0.0313,-0.0401,-0.0462,-0.0502,-0.0509,-0.0582,-0.0586,-0.0583,-0.0581,-0.0604,-0.0601,-0.0599,-0.0624,-0.0624,-0.0624,0,0,-0.0045,-0.0049,-0.0039,-0.005,-0.0075,-0.0088,-0.0097,-0.0119,-0.0141,-0.0186,-0.0238,-0.0304,-0.0403,-0.0457,-0.0504,-0.053,-0.0567,-0.0566,-0.0538,-0.0558,-0.0555,-0.0553,-0.0545,-0.0543,-0.0564,-0.0564,-0.0564,0,-0.0039,-0.0021,-0.0042,-0.0033,-0.0036,-0.0083,-0.0076,-0.0102,-0.0149,-0.0176,-0.0193,-0.0322,-0.0396,-0.0476,-0.0485,-0.0524,-0.0531,-0.0538,-0.0551,-0.0549,-0.0549,-0.0541,-0.054,-0.0561,-0.0561,-0.0561,-0.0562,0,-0.001,0.0006,0.0015,0.0012,0.0004,0.0002,-0.0036,-0.0059,-0.0096,-0.0133,-0.0214,-0.0293,-0.037,-0.0411,-0.0462,-0.0508,-0.0512,-0.054,-0.0548,-0.0541,-0.0535,-0.0534,-0.0556,-0.0557,-0.0558,-0.0559,0,0,0.0006,0.0028,0.0028,0.0042,0.0027,0.0023,0.0004,-0.0038,-0.0059,-0.0121,-0.0144,-0.027,-0.0314,-0.0369,-0.0439,-0.0465,-0.0464,-0.0499,-0.0501,-0.0471,-0.0486,-0.0471,-0.0469,-0.0492,-0.0492,-0.0492,-0.0474,0,0.0029,0.0064,0.0059,0.0087,0.0112,0.0073,0.0054,0.0007,-0.0037,-0.0068,-0.0166,-0.0222,-0.03,-0.0333,-0.0375,-0.0442,-0.0465,-0.0465,-0.0515,-0.0516,-0.0487,-0.0469,-0.0456,-0.0438,-0.0474,-0.0474,-0.0474,0,0.0063,0.0084,0.0117,0.0136,0.0135,0.0128,0.01,0.0077,0.0009,-0.0022,-0.0085,-0.0152,-0.0219,-0.0271,-0.0366,-0.0362,-0.0422,-0.0467,-0.0468,-0.0479,-0.0501,-0.0459,-0.0436,-0.0474,-0.0474,-0.0474,-0.0474,0,0.0101,0.0131,0.0157,0.0166,0.0165,0.0152,0.0133,0.0079,0.0075,0.0018,0.0027,-0.0082,-0.0098,-0.02,-0.0299,-0.0333,-0.0371,-0.0428,-0.047,-0.0468,-0.048,-0.0479,-0.0489,-0.0489,-0.0489,-0.0489,-0.0489,0,0.0147,0.0169,0.0172,0.0188,0.0199,0.0183,0.0182,0.0147,0.0131,0.0158,0.0053,0.0077,-0.0079,-0.0124,-0.0247,-0.0333,-0.0329,-0.0453,-0.0464,-0.0455,-0.0452,-0.0514,-0.0517,-0.0489,-0.0489,-0.0489,-0.0489,0,0.0192,0.0194,0.0232,0.0227,0.0227,0.023,0.024,0.0258,0.0222,0.0275,0.0273,0.0217,0.0162,0.0016,-0.0112,-0.0235,-0.0341,-0.0377,-0.0337,-0.0345,-0.044,-0.044,-0.043,-0.043,-0.0429,-0.0429,-0.0428,0,0.0204,0.0238,0.0266,0.0293,0.0288,0.0301,0.0327,0.0305,0.0354,0.0379,0.0432,0.0387,0.0377,0.0197,-0.002,-0.0209,-0.0267,-0.0328,-0.0414,-0.0423,-0.0435,-0.0436,-0.0437,-0.0393,-0.0393,-0.0392,-0.0392,0,0.0239,0.0255,0.0295,0.0364,0.0397,0.0447,0.0487,0.0546,0.0562,0.0618,0.0707,0.0695,0.0509,0.0318,0.0037,-0.0106,-0.0305,-0.0324,-0.0335,-0.0411,-0.0387,-0.04,-0.0402,-0.0387,-0.0388,-0.0388,-0.0388,-0.0388,0.0263,0.0302,0.0374,0.0442,0.0494,0.0586,0.0658,0.0744,0.0847,0.0931,0.0908,0.088,0.0622,0.0259,0.0037,-0.022,-0.0246,-0.0368,-0.037,-0.0373,-0.0373,-0.035,-0.0341,-0.0341,-0.0341,-0.0341,-0.0341,0,0.0306,0.0364,0.0446,0.0533,0.0627,0.0634,0.0769,0.0859,0.1019,0.1067,0.111,0.0864,0.0617,0.0332,-0.0046,-0.0279,-0.0316,-0.0345,-0.0358,-0.0361,-0.0364,-0.0365,-0.033,-0.033,-0.033,-0.0331,0,0,0.033,0.0427,0.0487,0.064,0.0705,0.0836,0.0928,0.1058,0.1122,0.1189,0.1148,0.1032,0.0675,0.0408,0.0095,-0.0111,-0.0177,-0.0148,-0.0139,-0.012,-0.012,-0.0365,-0.0368,0,0,0,0,0]}],[{"header":{"parameterUnit":"m.s-1","parameterCategory":2,"la1":30.2991,"la2":30.254,"lo1":-89.0895,"lo2":-89.0444,"dy":0.0017,"dx":0.0017,"nx":28,"ny":28,"refTime":"2024-02-03T09:00:00:Z","depth":"4","parameterNumber":2,"parameterNumberName":"U-component_of_CURRENTS"},"data":[0,0,0,0,0,0,0,0,0,0,0,0,0,0,0,0,0,0,0,0,0,0,0,0,0,0,0,0,0,0,0,0,0,0,0,0,0,0,0,0,0,0,0,0,0,0,0,0,0,0,0,0,0,0,0,0,0,0,0.0832,0.0833,0,0.0858,0.0858,0.0858,0.0901,0.0902,0.0903,0.0903,0.0887,0.0886,0.0885,0,0,0,0,0,0,0,0,0,0,0,0,0,0.0801,0.0801,0.0832,0.0833,0.0833,0.0858,0.0858,0.0858,0.0901,0.0902,0.0903,0.0904,0.0888,0.0886,0.0885,0,0,0,0,0,0,0,0,0,0,0,0,0,0.0819,0.0801,0.0832,0.0858,0.086,0.0858,0.0858,0.0858,0.0901,0.0902,0.0903,0.0904,0.0888,0.0886,0.0885,0.0848,0,0,0.0879,0.0878,0,0,0,0,0,0,0,0,0.0818,0.082,0.0854,0.0856,0.0859,0.0878,0.0841,0.0853,0.09,0.0885,0.0903,0.0905,0.088,0.0879,0.088,0.0847,0.0846,0.0879,0.0878,0.0877,0.0876,0,0,0,0,0,0,0,0.0816,0.0819,0.0842,0.0854,0.0857,0.0861,0.0865,0.0844,0.0873,0.0886,0.0889,0.0893,0.0881,0.0882,0.088,0.0846,0.0879,0.0877,0.0876,0.0875,0.0905,0.0907,0,0,0,0,0,0,0.0814,0.0818,0.0841,0.0842,0.0842,0.0861,0.0865,0.087,0.0875,0.0877,0.0892,0.0895,0.0885,0.0882,0.088,0.092,0.0877,0.0875,0.0874,0.0904,0.0906,0.0908,0,0,0,0,0,0,0.0813,0.0816,0.084,0.0831,0.0835,0.086,0.0865,0.087,0.0891,0.088,0.0881,0.0911,0.0886,0.0882,0.0885,0.0917,0.0874,0.0873,0.0901,0.0904,0.0907,0.0947,0,0,0,0,0,0,0.0812,0.0815,0.0824,0.0831,0.0835,0.0847,0.0864,0.0869,0.089,0.0895,0.0895,0.0895,0.0886,0.0888,0.0883,0.0914,0.0871,0.0899,0.0903,0.0906,0.0944,0.0951,0.0958,0,0,0,0,0,0.0811,0.0812,0.0824,0.0827,0.0844,0.0847,0.085,0.0871,0.089,0.0896,0.0907,0.0896,0.0909,0.0887,0.0881,0.0912,0.0897,0.0902,0.0906,0.094,0.095,0.0957,0,0,0,0,0,0,0.08,0.0817,0.083,0.0837,0.0847,0.0855,0.0867,0.0878,0.0892,0.0906,0.0898,0.0897,0.0916,0.0908,0.0885,0.0937,0.0909,0.0913,0.0938,0.0946,0.0953,0.0954,0.087,0,0,0,0,0,0.0802,0.0812,0.0824,0.0831,0.084,0.0857,0.0865,0.088,0.0889,0.0899,0.0907,0.092,0.0925,0.0931,0.0931,0.0941,0.0941,0.0967,0.0974,0.098,0.098,0.1006,0.1014,0.0922,0.0922,0.0922,0,0,0.08,0.0811,0.0817,0.0831,0.0846,0.0858,0.0866,0.0884,0.0905,0.0891,0.093,0.0935,0.0933,0.0956,0.0967,0.0955,0.101,0.0985,0.099,0.0987,0.1011,0.102,0.1028,0.0925,0.0924,0.0924,0,0,0.0795,0.0814,0.0822,0.0837,0.0861,0.0868,0.0877,0.0902,0.0927,0.0948,0.0959,0.0983,0.099,0.1004,0.1007,0.105,0.1042,0.1065,0.11,0.1126,0.1133,0.1139,0.116,0.1168,0.1074,0.1074,0.1074,0,0.0796,0.0808,0.0823,0.0839,0.0856,0.0876,0.0891,0.0912,0.0939,0.0964,0.0971,0.1016,0.1013,0.1043,0.107,0.1064,0.1077,0.1063,0.1133,0.1139,0.1145,0.1164,0.1172,0.1076,0.1076,0.1076,0.1076,0,0.0794,0.0816,0.0824,0.0854,0.087,0.0887,0.0918,0.0952,0.0985,0.1007,0.1057,0.1064,0.1096,0.1108,0.1098,0.1149,0.1145,0.1132,0.1105,0.1156,0.1174,0.1182,0.108,0.1079,0.1078,0.1078,0,0,0.0761,0.0814,0.0817,0.0845,0.0884,0.0895,0.0942,0.0981,0.1022,0.1062,0.1112,0.1137,0.116,0.1166,0.1173,0.1195,0.1249,0.1189,0.1189,0.1198,0.131,0.124,0.1241,0.125,0.1252,0.1253,0.1309,0,0.0758,0.0786,0.0814,0.0853,0.0875,0.0922,0.0961,0.1006,0.1052,0.1108,0.114,0.1185,0.1178,0.1208,0.123,0.1245,0.127,0.1235,0.1269,0.1269,0.1191,0.1247,0.1257,0.1314,0.1316,0.1317,0.1318,0,0.0746,0.0769,0.0803,0.0869,0.0884,0.0913,0.0989,0.1032,0.111,0.1154,0.1211,0.1236,0.1291,0.1272,0.1328,0.131,0.1317,0.132,0.1322,0.1244,0.1213,0.1252,0.1331,0.133,0.1329,0.1328,0.1328,0,0.0711,0.0765,0.0792,0.0814,0.0885,0.0924,0.097,0.1049,0.1093,0.1197,0.1244,0.1301,0.1351,0.1367,0.1387,0.1369,0.1432,0.1407,0.1348,0.1343,0.1368,0.1361,0.1439,0.1439,0.1439,0.1439,0.1439,0,0.0693,0.0718,0.0785,0.0802,0.0847,0.0915,0.0981,0.1043,0.113,0.1187,0.1273,0.1322,0.138,0.1419,0.1414,0.141,0.1462,0.1362,0.1355,0.1387,0.1381,0.1374,0.1366,0.1441,0.144,0.144,0.144,0,0.0653,0.0695,0.0735,0.0809,0.0835,0.0875,0.0974,0.102,0.1126,0.1207,0.1246,0.1355,0.1426,0.1459,0.1498,0.145,0.1446,0.1428,0.1472,0.1466,0.1332,0.1326,0.1369,0.1367,0.1366,0.1364,0.1363,0,0.063,0.0648,0.0723,0.0748,0.0786,0.0857,0.0901,0.1005,0.1055,0.1213,0.1238,0.1354,0.1417,0.1423,0.1463,0.1463,0.1437,0.1425,0.1362,0.1338,0.1327,0.1323,0.1319,0.136,0.136,0.136,0.1359,0,0.0587,0.0622,0.0653,0.0701,0.0749,0.0801,0.0877,0.0899,0.1032,0.1129,0.1213,0.1264,0.1346,0.1381,0.1401,0.1388,0.1426,0.1407,0.141,0.1351,0.1327,0.1318,0.1316,0.1353,0.1354,0.1355,0.1355,0,0.0551,0.056,0.0605,0.0645,0.0696,0.073,0.0784,0.0852,0.0911,0.1076,0.11,0.1234,0.1334,0.1344,0.1354,0.1351,0.1322,0.126,0.1269,0.1276,0.1219,0.1174,0.1156,0,0,0,0,0,0.0508,0.0515,0.0546,0.0579,0.0628,0.0663,0.0755,0.0816,0.0934,0.0961,0.1027,0.1101,0.1166,0.1227,0.1204,0.1303,0.1315,0.1269,0.1245,0.1322,0.1328,0.1268,0,0,0,0,0,0,0.0479,0.0503,0.0518,0.0515,0.0529,0.0576,0.0636,0.0724,0.0747,0.0877,0.0917,0.1018,0.1091,0.1159,0.1175,0.1192,0.1151,0.1341,0.1338,0.1318,0.1324,0.1329,0.127,0,0,0,0,0]},{"header":{"parameterUnit":"m.s-1","parameterCategory":2,"la1":30.2991,"la2":30.254,"lo1":-89.0895,"lo2":-89.0444,"dy":0.0017,"dx":0.0017,"nx":28,"ny":28,"refTime":"2024-02-03T09:00:00:Z","depth":"4","parameterNumber":3,"parameterNumberName":"V-component_of_CURRENTS"},"data":[0,0,0,0,0,0,0,0,0,0,0,0,0,0,0,0,0,0,0,0,0,0,0,0,0,0,0,0,0,0,0,0,0,0,0,0,0,0,0,0,0,0,0,0,0,0,0,0,0,0,0,0,0,0,0,0,0,0,0.0063,0.0063,0,0.0063,0.0063,0.0063,0.006,0.006,0.006,0.006,0.0072,0.0073,0.0073,0,0,0,0,0,0,0,0,0,0,0,0,0,0.0042,0.0043,0.0063,0.0063,0.0063,0.0063,0.0063,0.0063,0.006,0.006,0.006,0.006,0.0072,0.0073,0.0073,0,0,0,0,0,0,0,0,0,0,0,0,0,0.0048,0.0043,0.0063,0.0061,0.0061,0.0063,0.0063,0.0063,0.006,0.006,0.006,0.006,0.0072,0.0073,0.0073,0.0079,0,0,0.0075,0.0075,0,0,0,0,0,0,0,0,0.0047,0.0049,0.0062,0.0061,0.0061,0.0061,0.006,0.0069,0.006,0.0061,0.006,0.006,0.007,0.007,0.0071,0.008,0.008,0.0075,0.0075,0.0076,0.0076,0,0,0,0,0,0,0,0.0047,0.0048,0.0063,0.0062,0.0061,0.0054,0.0055,0.0061,0.0066,0.0061,0.0061,0.006,0.007,0.007,0.0071,0.008,0.0075,0.0076,0.0076,0.0076,0.0078,0.0078,0,0,0,0,0,0,0.0048,0.0048,0.0063,0.0063,0.0054,0.0055,0.0056,0.0062,0.0066,0.0066,0.006,0.006,0.0069,0.007,0.0072,0.0084,0.0076,0.0076,0.0077,0.0078,0.0078,0.0078,0,0,0,0,0,0,0.0048,0.0049,0.0063,0.0055,0.0056,0.0055,0.0062,0.0062,0.0064,0.0066,0.0066,0.0063,0.0069,0.0071,0.0083,0.0084,0.0077,0.0077,0.0079,0.0078,0.0078,0.0105,0,0,0,0,0,0,0.0047,0.0049,0.0055,0.0055,0.0057,0.0075,0.0062,0.0062,0.0064,0.0063,0.0068,0.0069,0.0069,0.0082,0.0084,0.0085,0.0078,0.0079,0.0079,0.0078,0.0105,0.0106,0.0107,0,0,0,0,0,0.0046,0.0065,0.0055,0.0057,0.0064,0.0076,0.0077,0.0075,0.0064,0.0074,0.0072,0.0069,0.0079,0.0083,0.0085,0.0086,0.0079,0.0079,0.0078,0.0104,0.0106,0.0107,0,0,0,0,0,0,0.0065,0.0066,0.0056,0.0074,0.0075,0.0076,0.0086,0.0077,0.0082,0.0081,0.0076,0.0078,0.0083,0.008,0.0085,0.0081,0.0074,0.0074,0.0093,0.0095,0.0096,0.0099,0.0078,0,0,0,0,0,0.0068,0.0079,0.0076,0.009,0.0093,0.0085,0.0088,0.0086,0.0089,0.009,0.0088,0.0083,0.0081,0.0086,0.0084,0.0093,0.0067,0.0089,0.009,0.0091,0.0093,0.0048,0.0045,0.0075,0.0075,0.0075,0,0,0.0077,0.008,0.0085,0.0093,0.0094,0.0108,0.0088,0.0099,0.0107,0.0092,0.0103,0.009,0.0083,0.0089,0.009,0.0089,0.0069,0.009,0.0091,0.0093,0.0047,0.0044,0.0041,0.0075,0.0075,0.0075,0,0,0.0106,0.0105,0.0122,0.0126,0.0129,0.0127,0.013,0.0128,0.0126,0.0133,0.0116,0.0104,0.0109,0.0098,0.0095,0.0099,0.0073,0.0095,0.0109,0.0066,0.0063,0.0061,0.0027,0.0021,0.0098,0.0098,0.0098,0,0.0115,0.0137,0.013,0.0149,0.0156,0.0138,0.0159,0.0156,0.0155,0.0151,0.0142,0.0119,0.0112,0.0107,0.0106,0.0102,0.0075,0.011,0.0068,0.0065,0.0061,0.0027,0.002,0.01,0.0099,0.0099,0.0099,0,0.0158,0.0171,0.0186,0.0199,0.0207,0.0225,0.0217,0.0218,0.0204,0.0191,0.0177,0.0155,0.014,0.0129,0.0123,0.0097,0.0084,0.0072,0.0067,0.006,0.0024,0.0017,0.0101,0.0101,0.0101,0.01,0,0,0.0186,0.021,0.0216,0.0226,0.0235,0.0248,0.0258,0.0261,0.026,0.0238,0.0228,0.0206,0.0176,0.0168,0.0144,0.0107,0.0059,0.0084,0.0081,0.0055,-0.0033,-0.0029,-0.0037,0.0038,0.0037,0.0036,-0.0048,0,0.022,0.0264,0.0268,0.0304,0.0321,0.031,0.0324,0.0318,0.03,0.0285,0.0239,0.0224,0.0197,0.0184,0.0141,0.0079,0.004,0.0084,-0.0027,-0.003,-0.0021,-0.0046,0.0032,-0.0054,-0.0056,-0.0057,-0.0058,0,0.0257,0.0281,0.0326,0.0348,0.0357,0.0376,0.0385,0.0396,0.0366,0.0348,0.031,0.0269,0.0216,0.0187,0.0076,0.0105,0.004,-0.0013,-0.0018,-0.0028,-0.004,-0.0047,-0.0072,-0.0071,-0.007,-0.0069,-0.0068,0,0.0276,0.0318,0.0356,0.0366,0.0391,0.0408,0.0424,0.0413,0.042,0.0383,0.0369,0.0297,0.0258,0.0164,0.0057,0.0062,-0.0074,-0.0081,-0.0139,-0.0139,-0.0129,-0.0125,-0.0166,-0.0166,-0.0166,-0.0165,-0.0165,0,0.0305,0.0333,0.037,0.0389,0.0433,0.044,0.0476,0.0473,0.0463,0.0468,0.0404,0.0375,0.0247,0.0155,0.0059,-0.0063,-0.0075,-0.0143,-0.0165,-0.0115,-0.0109,-0.0134,-0.0129,-0.0169,-0.0168,-0.0167,-0.0167,0,0.0315,0.034,0.0381,0.0423,0.0442,0.0474,0.0521,0.0536,0.0526,0.0524,0.0513,0.0421,0.03,0.0171,0.0012,-0.0055,-0.0174,-0.0214,-0.0148,-0.0163,-0.0211,-0.0204,-0.0288,-0.0289,-0.0289,-0.029,-0.029,0,0.0327,0.0348,0.0409,0.044,0.0463,0.0516,0.0549,0.0566,0.058,0.0551,0.0543,0.0432,0.0357,0.0139,0.0002,-0.0184,-0.0206,-0.0257,-0.0239,-0.0213,-0.0226,-0.0218,-0.021,-0.0291,-0.0291,-0.0291,-0.0291,0,0.034,0.0361,0.0396,0.0462,0.0508,0.0565,0.0612,0.0623,0.0636,0.0625,0.0561,0.0447,0.0308,0.0137,-0.0008,-0.0139,-0.0219,-0.0263,-0.0263,-0.0247,-0.0217,-0.0228,-0.022,-0.0293,-0.0293,-0.0293,-0.0293,0,0.0348,0.0374,0.0421,0.0479,0.0539,0.0592,0.0621,0.0636,0.065,0.0616,0.0591,0.0446,0.036,0.0159,0.0025,-0.0105,-0.0135,-0.0159,-0.0165,-0.0165,-0.0102,-0.0045,-0.0092,0,0,0,0,0,0.0354,0.0383,0.0435,0.0498,0.0557,0.0596,0.0651,0.067,0.0678,0.0641,0.062,0.0492,0.0286,0.0189,0.0059,0.0008,-0.0161,-0.0148,-0.0192,-0.0304,-0.0301,-0.0248,0,0,0,0,0,0,0.0356,0.0402,0.0431,0.0503,0.0547,0.0616,0.0652,0.0661,0.0642,0.0626,0.0512,0.0468,0.0257,0.0353,0.0055,0.0015,-0.0027,-0.0245,-0.0247,-0.0305,-0.0303,-0.0301,-0.0246,0,0,0,0,0]}]]